Starlink 5003

operational
NORAD ID: 53905 Int'l Des: 2022-119 Owner: SPXS Country: US Constellation: starlink
LEOCIRCULAR

Starlink 5003について

説明を読み込み中...

リアルタイム位置

3D地球を読み込み中...

次回通過

高度履歴

Altitude vs Time

uPlot chart will show altitude changes over time

軌道要素

1 53905U 22119V 26034.52241561 -.00000340 00000-0 -32865-5 0 9996
2 53905 53.2187 107.7201 0001548 83.6796 276.4372 15.08842496186660
Epoch: Feb 3, 2026 • Age: 17 hours

現在のステータス

高度 559.1 km
速度 7.58 km/s
衛星直下点 -52.64°S, 143.07°E
打ち上げ日 Sep 24, 2022
運用期間 3.3 years
タイプ internet

技術仕様

分類 Payload
質量 305.00 kg
乾燥質量 290.00 kg
総質量 305.00 kg
長さ 0.20 m
直径 2.80 m
スパン 9.00 m
形状 Box + pan
製造者 SPXS
バスタイプ Starlink
フェーズステータス In Orbit
所有者/国 SPXS/US

大規模コンステレーション

Loading constellations...